{"data":{"norad_id":53558,"intl_designator":"2022-101AH","name":"STARLINK-4494","alt_names":[],"object_type":"PAYLOAD","status":"ACTIVE","operator":null,"country":"US","launch_date":"2022-08-19","launch_site_code":"AFETR","launch_vehicle":null,"mission":null,"orbit_class":"UNKNOWN","rcs_meters":null,"size_class":null,"mass_kg":null,"dimensions":null,"purposes":["comms"],"wikipedia_slug":null,"has_3d_model":false,"image_url":null,"decayed_at":null,"tle_current":{"epoch":"2026-05-25T02:16:46.225344Z","epoch_age_seconds":62911,"freshness":"FRESH","line1":"1 53558U 22101AH  26145.09497946  .00005479  00000+0  36242-3 0  9992","line2":"2 53558  53.2120  75.8491 0001329  89.4861 270.6283 15.08805103208577","mean_motion":15.08805103,"eccentricity":0.0001329,"inclination_deg":53.212,"raan_deg":75.8491,"arg_perigee_deg":89.4861,"mean_anomaly_deg":270.6283,"bstar":0.00036242,"rev_number":20857,"period_min":95.439762043276,"perigee_km":538.93065670833,"apogee_km":540.76945766813,"semimajor_km":6917.9870571882,"source":"CELESTRAK","updated_at":"2026-05-25T13:38:17.445910Z"}}}